Location: Daytona Beach
(29.2106°N, 81.0231°W)
Time: 19:25:47
(UTC-04:00)

ISS - Pass Details

Date: 25 June 2021
Orbit: 419 x 421 km, 51.6° (Epoch: 30 July)

Event Time Altitude Azimuth Distance (km) Brightness Sun altitude
Exits shadow 05:58:42 - 264° (W) 1,822 -1.1 -6.1°
Reaches altitude 10° 05:59:44 10° 274° (W) 1,492 -1.4 -5.9°
Maximum altitude 06:02:11 19° 321° (NW) 1,075 -1.7 -5.5°
Drops below altitude 10° 06:04:39 10° 9° (N) 1,496 -0.4 -5.0°
Sets 06:07:11 0° 28° (NNE) 2,361 1.2 -4.5°
